Location: ??????
(55.2000°N, 38.3000°E)
Time: 00:32:16
(UTC+00:00)

Cosmos 2360 Rocket - Pass Details

Date: 15 November 2025
Orbit: 833 x 843 km, 71.0° (Epoch: 12 December)

Event Time Altitude Azimuth Distance (km) Brightness Sun altitude
Exits shadow 03:52:49 - 316° (NW) 2,623 4.2 -9.4°
Reaches altitude 10° 03:53:28 10° 322° (NW) 2,473 4.1 -9.3°
Maximum altitude 03:56:56 16° 360° (N) 2,066 4.0 -8.9°
Drops below altitude 10° 04:00:23 10° 37° (NE) 2,470 4.9 -8.4°
Sets 04:03:52 0° 59° (ENE) 3,403 5.9 -7.9°
